This is the latest recevied weather packets stored in our database for station/object K9VSK-9. If no packets are shown the sender has not sent any weather packets the latest 10 day(s).
| Time | Temp. | Humidity | Pressure | Rain* | Wind** | Luminosity | Snow |
|---|---|---|---|---|---|---|---|
| 1787689934 | 25.56° C | 67% | 1018 hPa | 0 mm | - | - | - |
| 1787689634 | 25.56° C | 66% | 1018.1 hPa | 0 mm | - | - | - |
| 1787689334 | 25.56° C | 68% | 1018.1 hPa | 0 mm | - | - | - |
| 1787689033 | 25.56° C | 65% | 1018.4 hPa | 0 mm | - | - | - |
| 1787688733 | 25.56° C | 69% | 1018.5 hPa | 0 mm | - | - | - |
| 1787688433 | 25.56° C | 70% | 1018.6 hPa | 0 mm | - | - | - |
| 1787688132 | 25° C | 67% | 1018.6 hPa | 0 mm | - | - | - |
| 1787687832 | 25.56° C | 69% | 1018.7 hPa | 0 mm | - | - | - |
| 1787687232 | 25° C | 71% | 1018.9 hPa | 0 mm | - | - | - |
| 1787686931 | 25° C | 68% | 1019 hPa | 0 mm | - | - | - |
| 1787686030 | 25° C | 72% | 1019.1 hPa | 0 mm | - | - | - |
| 1787685730 | 24.44° C | 72% | 1019.3 hPa | 0 mm | - | - | - |
| 1787685430 | 24.44° C | 69% | 1019.3 hPa | 0 mm | - | - | - |
| 1787685130 | 24.44° C | 71% | 1019.3 hPa | 0 mm | - | - | - |
| 1787684229 | 24.44° C | 72% | 1019.2 hPa | 0 mm | - | - | - |
| 1787683928 | 24.44° C | 72% | 1019.2 hPa | 0 mm | - | - | - |
| 1787683327 | 25° C | 70% | 1019.4 hPa | 0 mm | - | - | - |
| 1787682727 | 25° C | 68% | 1019.5 hPa | 0 mm | - | - | - |
| 1787682427 | 25° C | 70% | 1019.5 hPa | 0 mm | - | - | - |
| 1787682127 | 25° C | 70% | 1019.4 hPa | 0 mm | - | - | - |
| 1787681826 | 24.44° C | 67% | 1019.4 hPa | 0 mm | - | - | - |
| 1787681526 | 24.44° C | 70% | 1019.5 hPa | 0 mm | - | - | - |
| 1787681226 | 24.44° C | 71% | 1019.4 hPa | 0 mm | - | - | - |
| 1787680926 | 24.44° C | 71% | 1019.4 hPa | 0 mm | - | - | - |
| 1787680626 | 24.44° C | 72% | 1019.4 hPa | 0 mm | - | - | - |
* Rain latest hour (hover to see other rain measurements)
** Current wind speed in m/s (hover to see current wind gust speed)